,,,PA_Meas_PMT16A,,PR_Meas_QMR101_102,,RH_Meas_QMH101,,SR_Meas_QMS101,,TA_Meas_QMH101,,GenWind,,GenWind,
date,time,status,PA,status,PR,status,RH,status,SR,status,TA,status,DirAvg,status,SpdAvg,
2010-12-14, 00:00:05,VALID,1000.91,VALID,0,VALID,89.1368,VALID,0,VALID,22.919,VALID,210,VALID,3.63398,
2010-12-14, 00:01:05,VALID,1000.95,VALID,0,VALID,89.2666,VALID,0,VALID,22.9385,VALID,219,VALID,2.77656,
2010-12-14, 00:02:05,VALID,1000.9,VALID,0,VALID,89.2971,VALID,0,VALID,22.9385,VALID,210,VALID,3.075,
2010-12-14, 00:03:05,VALID,1000.94,VALID,0,VALID,89.32,VALID,0,VALID,22.9581,VALID,234,VALID,2.50117,
2010-12-14, 00:04:05,VALID,1000.92,VALID,0,VALID,89.4878,VALID,0,VALID,22.9581,VALID,209,VALID,2.11641,
2010-12-14, 00:05:05,VALID,1000.88,VALID,0,VALID,89.4039,VALID,0,VALID,22.9971,VALID,211,VALID,2.50664,
2010-12-14, 00:06:05,VALID,1000.86,VALID,0,VALID,89.1368,VALID,0,VALID,23.0378,VALID,208,VALID,2.95156,
2010-12-14, 00:07:05,VALID,1000.91,VALID,0,VALID,88.6638,VALID,0,VALID,23.0946,VALID,209,VALID,3.59609,
2010-12-14, 00:08:05,VALID,1000.92,VALID,0,VALID,88.5951,VALID,0.112286,VALID,23.1336,VALID,229,VALID,2.35,
2010-12-14, 00:09:05,VALID,1000.93,VALID,0,VALID,88.4349,VALID,0,VALID,23.1141,VALID,196,VALID,1.74883,
2010-12-14, 00:10:05,VALID,1000.9,VALID,0,VALID,88.5265,VALID,0.112286,VALID,23.1549,VALID,213,VALID,1.00469,
2010-12-14, 00:11:05,VALID,1000.92,VALID,0,VALID,88.5494,VALID,0,VALID,23.1336,VALID,230,VALID,1.24805,
2010-12-14, 00:12:05,VALID,1000.93,VALID,0,VALID,88.557,VALID,0.112286,VALID,23.1531,VALID,233,VALID,2.38906,
2010-12-14, 00:13:05,VALID,1000.96,VALID,0,VALID,88.3281,VALID,0.112286,VALID,23.1726,VALID,229,VALID,1.38828,
2010-12-14, 00:14:05,VALID,1000.97,VALID,0,VALID,88.2442,VALID,0.112286,VALID,23.1726,VALID,287,VALID,0.775781,
2010-12-14, 00:15:05,VALID,1000.92,VALID,0,VALID,88.0229,VALID,0.112286,VALID,23.2312,VALID,256,VALID,2.01641,
2010-12-14, 00:16:05,VALID,1000.9,VALID,0,VALID,87.8627,VALID,0.112286,VALID,23.2719,VALID,274,VALID,1.2043,
2010-12-14, 00:17:05,VALID,1000.83,VALID,0,VALID,87.1989,VALID,0,VALID,23.2507,VALID,320,VALID,1.82227,
2010-12-14, 00:18:05,VALID,1000.85,VALID,0,VALID,86.5351,VALID,0.112286,VALID,23.3092,VALID,267,VALID,1.2,
2010-12-14, 00:19:05,VALID,1000.83,VALID,0,VALID,87.0463,VALID,0,VALID,23.3287,VALID,269,VALID,1.39375,
2010-12-14, 00:20:05,VALID,1000.84,VALID,0,VALID,86.703,VALID,0,VALID,23.3092,VALID,344,VALID,1.75195,
2010-12-14, 00:21:05,VALID,1000.88,VALID,0,VALID,86.4589,VALID,0,VALID,23.3305,VALID,251,VALID,1.1043,
2010-12-14, 00:22:05,VALID,1000.84,VALID,0,VALID,85.9706,VALID,0,VALID,23.3092,VALID,254,VALID,1.8875,
2010-12-14, 00:23:05,VALID,1000.86,VALID,0,VALID,85.5051,VALID,0.112286,VALID,23.3287,VALID,265,VALID,1.76953,
2010-12-14, 00:24:05,VALID,1000.85,VALID,0,VALID,85.3526,VALID,0,VALID,23.311,VALID,235,VALID,1.76289,
2010-12-14, 00:25:05,VALID,1000.83,VALID,0,VALID,84.6659,VALID,0,VALID,23.311,VALID,241,VALID,1.87852,
2010-12-14, 00:26:05,VALID,1000.77,VALID,0,VALID,85.0779,VALID,0,VALID,23.2702,VALID,298,VALID,1.36367,
2010-12-14, 00:27:05,VALID,1000.76,VALID,0,VALID,84.6888,VALID,0,VALID,23.2117,VALID,228,VALID,1.57344,
2010-12-14, 00:28:05,VALID,1000.74,VALID,0,VALID,84.9482,VALID,0,VALID,23.1726,VALID,200,VALID,1.44141,
2010-12-14, 00:29:05,VALID,1000.78,VALID,0,VALID,85.406,VALID,0,VALID,23.1531,VALID,221,VALID,1.46133,
2010-12-14, 00:30:05,VALID,1000.75,VALID,0,VALID,84.9711,VALID,0,VALID,23.1159,VALID,300,VALID,2.09258,
2010-12-14, 00:31:05,VALID,1000.73,VALID,0,VALID,85.5128,VALID,0,VALID,23.0964,VALID,237,VALID,1.63008,
2010-12-14, 00:32:05,VALID,1000.74,VALID,0,VALID,84.1776,VALID,0,VALID,23.0573,VALID,228,VALID,2.9125,
2010-12-14, 00:33:05,VALID,1000.65,VALID,0,VALID,84.376,VALID,0.112286,VALID,23.0556,VALID,284,VALID,2.49336,
2010-12-14, 00:34:05,VALID,1000.69,VALID,0,VALID,84.4828,VALID,0,VALID,23.0166,VALID,252,VALID,2.30859,
2010-12-14, 00:35:05,VALID,1000.69,VALID,0,VALID,85.0092,VALID,0,VALID,22.9776,VALID,223,VALID,1.94961,
2010-12-14, 00:36:05,VALID,1000.68,VALID,0,VALID,84.8185,VALID,0.112286,VALID,22.9971,VALID,210,VALID,2.18203,
2010-12-14, 00:37:05,VALID,1000.62,VALID,0,VALID,84.6277,VALID,0,VALID,22.9971,VALID,212,VALID,2.21719,
2010-12-14, 00:38:05,VALID,1000.59,VALID,0,VALID,84.2539,VALID,0,VALID,22.9971,VALID,227,VALID,1.79648,
2010-12-14, 00:39:05,VALID,1000.55,VALID,0,VALID,83.2315,VALID,0,VALID,22.9776,VALID,224,VALID,2.01094,
2010-12-14, 00:40:05,VALID,1000.53,VALID,0,VALID,83.8495,VALID,0,VALID,23.0201,VALID,253,VALID,1.7543,
2010-12-14, 00:41:05,VALID,1000.51,VALID,0,VALID,84.086,VALID,0,VALID,22.9793,VALID,244,VALID,1.26953,
2010-12-14, 00:42:05,VALID,1000.47,VALID,0,VALID,84.6583,VALID,0,VALID,22.9403,VALID,219,VALID,1.12109,
2010-12-14, 00:43:05,VALID,1000.42,VALID,0,VALID,85.1618,VALID,0,VALID,22.9208,VALID,255,VALID,1.41289,
2010-12-14, 00:44:05,VALID,1000.38,VALID,0,VALID,85.5357,VALID,0,VALID,22.8818,VALID,182,VALID,0.849609,
2010-12-14, 00:45:05,VALID,1000.37,VALID,0,VALID,85.7874,VALID,0,VALID,22.8835,VALID,204,VALID,0.765234,
2010-12-14, 00:46:05,VALID,1000.33,VALID,0,VALID,86.1079,VALID,0,VALID,22.8623,VALID,216,VALID,0.497656,
2010-12-14, 00:47:05,VALID,1000.3,VALID,0,VALID,86.6191,VALID,0,VALID,22.8623,VALID,202,VALID,0.68125,
2010-12-14, 00:48:05,VALID,1000.2,VALID,0,VALID,87.2829,VALID,0,VALID,22.8818,VALID,285,VALID,0.61875,
2010-12-14, 00:49:05,VALID,1000.09,VALID,0,VALID,87.0006,VALID,0,VALID,22.825,VALID,337,VALID,0.675391,
2010-12-14, 00:50:05,VALID,1000.05,VALID,0,VALID,87.0921,VALID,0,VALID,22.7647,VALID,338,VALID,0.217969,
2010-12-14, 00:51:05,VALID,1000.02,VALID,0,VALID,87.7177,VALID,0,VALID,22.786,VALID,239,VALID,1.17344,
2010-12-14, 00:52:05,VALID,999.968,VALID,0,VALID,87.7406,VALID,0,VALID,22.7647,VALID,246,VALID,1.85664,
2010-12-14, 00:53:05,VALID,999.93,VALID,0,VALID,87.5957,VALID,0,VALID,22.8037,VALID,225,VALID,1.24727,
2010-12-14, 00:54:05,VALID,999.906,VALID,0,VALID,87.321,VALID,0,VALID,22.8445,VALID,230,VALID,0.891797,
2010-12-14, 00:55:05,VALID,999.892,VALID,0,VALID,87.2981,VALID,0,VALID,22.8215,VALID,231,VALID,0.345313,
2010-12-14, 00:56:05,VALID,999.909,VALID,0,VALID,87.4507,VALID,0,VALID,22.802,VALID,231,VALID,0.384375,
2010-12-14, 00:57:04,VALID,999.925,VALID,0,VALID,87.382,VALID,0.112286,VALID,22.7825,VALID,231,VALID,0.410547,
2010-12-14, 00:58:04,VALID,999.959,VALID,0,VALID,87.26,VALID,0.112286,VALID,22.7842,VALID,113,VALID,0.59375,
2010-12-14, 00:59:04,VALID,999.969,VALID,0,VALID,87.0311,VALID,0,VALID,22.7825,VALID,113,VALID,0.711719,
2010-12-14, 01:00:04,VALID,999.937,VALID,0,VALID,87.0311,VALID,0.112286,VALID,22.8037,VALID,141,VALID,0.872656,
2010-12-14, 01:01:04,VALID,999.909,VALID,0,VALID,87.1532,VALID,0.112286,VALID,22.841,VALID,127,VALID,0.978516,
2010-12-14, 01:02:04,VALID,999.912,VALID,0,VALID,87.2905,VALID,0.112286,VALID,22.88,VALID,191,VALID,0.651172,
2010-12-14, 01:03:04,VALID,999.905,VALID,0,VALID,86.9777,VALID,0.112286,VALID,22.88,VALID,149,VALID,1.08242,
2010-12-14, 01:04:04,VALID,999.9,VALID,0,VALID,87.1455,VALID,0,VALID,22.9208,VALID,187,VALID,1.83164,
2010-12-14, 01:05:04,VALID,999.942,VALID,0,VALID,86.9319,VALID,0,VALID,22.919,VALID,192,VALID,2.10703,
2010-12-14, 01:06:04,VALID,999.937,VALID,0,VALID,87.5117,VALID,0,VALID,22.9385,VALID,171,VALID,2.51523,
2010-12-14, 01:07:04,VALID,999.985,VALID,0,VALID,87.3744,VALID,0,VALID,22.919,VALID,184,VALID,1.96602,
2010-12-14, 01:08:04,VALID,1000.02,VALID,0,VALID,87.1684,VALID,0,VALID,22.88,VALID,204,VALID,0.512891,
2010-12-14, 01:09:04,VALID,999.994,VALID,0,VALID,87.1837,VALID,0.112286,VALID,22.88,VALID,204,VALID,0.882813,
2010-12-14, 01:10:04,VALID,1000.01,VALID,0,VALID,87.1074,VALID,0,VALID,22.8623,VALID,234,VALID,1.60391,
2010-12-14, 01:11:04,VALID,999.977,VALID,0,VALID,86.3444,VALID,0.112286,VALID,22.8605,VALID,194,VALID,0.798828,
2010-12-14, 01:12:04,VALID,999.93,VALID,0,VALID,86.6343,VALID,0,VALID,22.8427,VALID,210,VALID,0.318359,
2010-12-14, 01:13:04,VALID,999.902,VALID,0,VALID,86.8022,VALID,0.112286,VALID,22.8427,VALID,181,VALID,1.64648,
2010-12-14, 01:14:04,VALID,999.89,VALID,0,VALID,87.0082,VALID,0,VALID,22.8605,VALID,167,VALID,3.05391,
2010-12-14, 01:15:04,VALID,999.872,VALID,0,VALID,85.7951,VALID,0,VALID,22.8818,VALID,164,VALID,2.44336,
2010-12-14, 01:16:04,VALID,999.863,VALID,0,VALID,86.0316,VALID,0,VALID,22.9208,VALID,158,VALID,1.90234,
2010-12-14, 01:17:04,VALID,999.851,VALID,0,VALID,86.4512,VALID,0,VALID,22.9013,VALID,133,VALID,1.37422,
2010-12-14, 01:18:04,VALID,999.831,VALID,0,VALID,86.4894,VALID,0,VALID,22.841,VALID,129,VALID,1.78398,
2010-12-14, 01:19:04,VALID,999.807,VALID,0,VALID,87.3439,VALID,0,VALID,22.8215,VALID,128,VALID,1.61289,
2010-12-14, 01:20:04,VALID,999.804,VALID,0,VALID,87.6872,VALID,0,VALID,22.8037,VALID,130,VALID,1.09844,
2010-12-14, 01:21:04,VALID,999.777,VALID,0,VALID,87.527,VALID,0,VALID,22.724,VALID,130,VALID,0.989453,
2010-12-14, 01:22:04,VALID,999.732,VALID,0,VALID,87.0845,VALID,0.112286,VALID,22.724,VALID,100,VALID,1.12852,
2010-12-14, 01:23:04,VALID,999.673,VALID,0,VALID,87.2218,VALID,0,VALID,22.724,VALID,82,VALID,0.978125,
2010-12-14, 01:24:04,VALID,999.666,VALID,0,VALID,86.9472,VALID,0,VALID,22.7045,VALID,82,VALID,0.896484,
2010-12-14, 01:25:04,VALID,999.676,VALID,0,VALID,87.0616,VALID,0.112286,VALID,22.7452,VALID,113,VALID,0.836328,
2010-12-14, 01:26:04,VALID,999.677,VALID,0,VALID,86.7411,VALID,0,VALID,22.7647,VALID,133,VALID,1.06602,
2010-12-14, 01:27:04,VALID,999.666,VALID,0,VALID,86.2376,VALID,0,VALID,22.7452,VALID,118,VALID,0.940625,
2010-12-14, 01:28:04,VALID,999.708,VALID,0,VALID,86.3292,VALID,0,VALID,22.7435,VALID,94,VALID,1.0875,
2010-12-14, 01:29:04,VALID,999.718,VALID,0,VALID,85.9782,VALID,0.112286,VALID,22.7647,VALID,74,VALID,1.12422,
2010-12-14, 01:30:04,VALID,999.725,VALID,0,VALID,86.8022,VALID,0,VALID,22.8232,VALID,91,VALID,0.728516,
2010-12-14, 01:31:04,VALID,999.772,VALID,0,VALID,86.8632,VALID,0.112286,VALID,22.802,VALID,73,VALID,0.975781,
2010-12-14, 01:32:04,VALID,999.769,VALID,0,VALID,86.9243,VALID,0.112286,VALID,22.802,VALID,66,VALID,1.03398,
2010-12-14, 01:33:04,VALID,999.799,VALID,0,VALID,86.9166,VALID,0.112286,VALID,22.802,VALID,53,VALID,1.23984,
2010-12-14, 01:34:04,VALID,999.782,VALID,0,VALID,87.3057,VALID,0.112286,VALID,22.7825,VALID,40,VALID,1.17695,
2010-12-14, 01:35:04,VALID,999.839,VALID,0,VALID,87.5804,VALID,0.112286,VALID,22.8037,VALID,46,VALID,1.44258,
2010-12-14, 01:36:04,VALID,999.797,VALID,0,VALID,88.0153,VALID,0,VALID,22.8037,VALID,40,VALID,1.48984,
2010-12-14, 01:37:04,VALID,999.805,VALID,0,VALID,88.1832,VALID,0,VALID,22.763,VALID,44,VALID,1.53828,
2010-12-14, 01:38:04,VALID,999.785,VALID,0,VALID,88.5951,VALID,0,VALID,22.763,VALID,43,VALID,1.42305,
2010-12-14, 01:39:04,VALID,999.774,VALID,0,VALID,88.5417,VALID,0,VALID,22.7435,VALID,33,VALID,1.7457,
2010-12-14, 01:40:04,VALID,999.8,VALID,0,VALID,88.4349,VALID,0.112286,VALID,22.7257,VALID,18,VALID,1.29688,
2010-12-14, 01:41:04,VALID,999.773,VALID,0,VALID,88.4197,VALID,0,VALID,22.7045,VALID,27,VALID,1.61133,
2010-12-14, 01:42:04,VALID,999.787,VALID,0,VALID,87.6796,VALID,0.112286,VALID,22.685,VALID,42,VALID,1.44492,
2010-12-14, 01:43:04,VALID,999.773,VALID,0,VALID,87.6949,VALID,0,VALID,22.7045,VALID,44,VALID,1.42344,
2010-12-14, 01:44:04,VALID,999.763,VALID,0,VALID,88.0763,VALID,0,VALID,22.724,VALID,30,VALID,1.36602,
2010-12-14, 01:45:04,VALID,999.761,VALID,0,VALID,88.4578,VALID,0,VALID,22.7647,VALID,31,VALID,1.64141,
2010-12-14, 01:46:04,VALID,999.757,VALID,0,VALID,88.618,VALID,0,VALID,22.7452,VALID,28,VALID,1.63984,
2010-12-14, 01:47:04,VALID,999.777,VALID,0,VALID,88.5341,VALID,0,VALID,22.7045,VALID,30,VALID,1.59453,
2010-12-14, 01:48:04,VALID,999.799,VALID,0,VALID,88.9385,VALID,0,VALID,22.7045,VALID,24,VALID,1.23984,
2010-12-14, 01:49:04,VALID,999.797,VALID,0,VALID,89.1674,VALID,0.112286,VALID,22.6655,VALID,20,VALID,1.79727,
2010-12-14, 01:50:04,VALID,999.811,VALID,0,VALID,89.32,VALID,0.112286,VALID,22.6655,VALID,22,VALID,1.21563,
2010-12-14, 01:51:04,VALID,999.856,VALID,0,VALID,89.6099,VALID,0,VALID,22.6655,VALID,23,VALID,0.928906,
2010-12-14, 01:52:04,VALID,999.836,VALID,0,VALID,89.793,VALID,0.112286,VALID,22.6264,VALID,30,VALID,0.872266,
2010-12-14, 01:53:04,VALID,999.786,VALID,0,VALID,89.8922,VALID,0.112286,VALID,22.6069,VALID,32,VALID,0.762891,
2010-12-14, 01:54:04,VALID,999.775,VALID,0,VALID,89.7625,VALID,0.112286,VALID,22.5679,VALID,41,VALID,0.672656,
2010-12-14, 01:55:04,VALID,999.682,VALID,0,VALID,89.7167,VALID,0,VALID,22.5714,VALID,41,VALID,0.778125,
2010-12-14, 01:56:04,VALID,999.682,VALID,0,VALID,89.6328,VALID,0,VALID,22.5306,VALID,41,VALID,0.549219,
2010-12-14, 01:57:04,VALID,999.629,VALID,0,VALID,89.5641,VALID,0,VALID,22.5306,VALID,41,VALID,0.395312,
2010-12-14, 01:58:04,VALID,999.589,VALID,0,VALID,89.5794,VALID,0,VALID,22.5519,VALID,41,VALID,0.231641,
2010-12-14, 01:59:04,VALID,999.564,VALID,0,VALID,89.6099,VALID,0,VALID,22.5323,VALID,41,VALID,0.283984,
2010-12-14, 02:00:04,VALID,999.587,VALID,0,VALID,89.5717,VALID,0,VALID,22.4933,VALID,41,VALID,0.317969,
2010-12-14, 02:01:04,VALID,999.566,VALID,0,VALID,89.648,VALID,0,VALID,22.4916,VALID,41,VALID,0.246875,
2010-12-14, 02:02:04,VALID,999.58,VALID,0,VALID,89.7777,VALID,0,VALID,22.5128,VALID,41,VALID,0.298828,
2010-12-14, 02:03:04,VALID,999.584,VALID,0,VALID,89.6633,VALID,0,VALID,22.5128,VALID,70,VALID,0.8125,
2010-12-14, 02:04:04,VALID,999.597,VALID,0,VALID,89.7091,VALID,0,VALID,22.4916,VALID,70,VALID,1.06328,
2010-12-14, 02:05:04,VALID,999.6,VALID,0,VALID,89.7167,VALID,0,VALID,22.4916,VALID,70,VALID,1.06562,
2010-12-14, 02:06:04,VALID,999.638,VALID,0,VALID,89.9456,VALID,0,VALID,22.5111,VALID,74,VALID,1.31758,
2010-12-14, 02:07:04,VALID,999.663,VALID,0,VALID,90.0448,VALID,0,VALID,22.4916,VALID,75,VALID,1.56445,
2010-12-14, 02:08:04,VALID,999.675,VALID,0,VALID,90.2508,VALID,0,VALID,22.5094,VALID,81,VALID,1.54336,
2010-12-14, 02:09:04,VALID,999.704,VALID,0,VALID,90.2966,VALID,0,VALID,22.5111,VALID,95,VALID,1.47031,
2010-12-14, 02:10:04,VALID,999.714,VALID,0,VALID,90.3652,VALID,0,VALID,22.4916,VALID,103,VALID,1.12461,
2010-12-14, 02:11:04,VALID,999.739,VALID,0,VALID,90.4873,VALID,0,VALID,22.4721,VALID,103,VALID,1.27578,
2010-12-14, 02:12:04,VALID,999.76,VALID,0,VALID,90.5636,VALID,0,VALID,22.4526,VALID,95,VALID,1.18828,
2010-12-14, 02:13:04,VALID,999.802,VALID,0,VALID,90.678,VALID,0,VALID,22.4933,VALID,83,VALID,1.16992,
2010-12-14, 02:14:04,VALID,999.832,VALID,0,VALID,90.823,VALID,0,VALID,22.4526,VALID,61,VALID,1.45898,
2010-12-14, 02:15:04,VALID,999.886,VALID,0.5,VALID,90.7696,VALID,0,VALID,22.4331,VALID,50,VALID,1.43867,
2010-12-14, 02:16:04,VALID,999.908,VALID,0,VALID,90.7314,VALID,0,VALID,22.4136,VALID,43,VALID,1.57031,
2010-12-14, 02:17:04,VALID,999.883,VALID,0,VALID,90.5941,VALID,0,VALID,22.4136,VALID,43,VALID,1.51367,
2010-12-14, 02:18:04,VALID,999.872,VALID,0,VALID,90.5483,VALID,0,VALID,22.4136,VALID,47,VALID,2.10352,
2010-12-14, 02:19:04,VALID,999.856,VALID,0,VALID,90.3194,VALID,0,VALID,22.4153,VALID,48,VALID,2.12031,
2010-12-14, 02:20:04,VALID,999.831,VALID,0,VALID,90.3576,VALID,0,VALID,22.4136,VALID,45,VALID,2.08125,
2010-12-14, 02:21:04,VALID,999.823,VALID,0,VALID,90.472,VALID,0,VALID,22.3941,VALID,52,VALID,1.53711,
2010-12-14, 02:22:04,VALID,999.81,VALID,0,VALID,90.5941,VALID,0,VALID,22.4136,VALID,58,VALID,1.65508,
2010-12-14, 02:23:04,VALID,999.788,VALID,0,VALID,90.6933,VALID,0,VALID,22.3941,VALID,58,VALID,1.47695,
2010-12-14, 02:24:04,VALID,999.767,VALID,0,VALID,90.823,VALID,0,VALID,22.3746,VALID,53,VALID,1.21758,
2010-12-14, 02:25:04,VALID,999.778,VALID,0,VALID,90.9374,VALID,0,VALID,22.3941,VALID,45,VALID,1.28437,
2010-12-14, 02:26:04,VALID,999.782,VALID,0,VALID,90.9222,VALID,0,VALID,22.3746,VALID,36,VALID,1.16289,
2010-12-14, 02:27:04,VALID,999.787,VALID,0,VALID,90.9146,VALID,0,VALID,22.3746,VALID,35,VALID,1.38398,
2010-12-14, 02:28:04,VALID,999.797,VALID,0,VALID,90.9832,VALID,0,VALID,22.3941,VALID,33,VALID,0.769922,
2010-12-14, 02:29:04,VALID,999.772,VALID,0,VALID,91.0366,VALID,0,VALID,22.4136,VALID,26,VALID,1.07656,
2010-12-14, 02:30:04,VALID,999.757,VALID,0,VALID,91.0366,VALID,0,VALID,22.4136,VALID,21,VALID,1.11211,
2010-12-14, 02:31:04,VALID,999.753,VALID,0,VALID,91.029,VALID,0,VALID,22.4348,VALID,31,VALID,1.04297,
2010-12-14, 02:32:04,VALID,999.714,VALID,0,VALID,90.8917,VALID,0,VALID,22.3941,VALID,38,VALID,1.46875,
2010-12-14, 02:33:04,VALID,999.733,VALID,0,VALID,90.7772,VALID,0,VALID,22.4136,VALID,16,VALID,1.24766,
2010-12-14, 02:34:04,VALID,999.712,VALID,0,VALID,90.7009,VALID,0,VALID,22.4136,VALID,34,VALID,1.0043,
2010-12-14, 02:35:04,VALID,999.72,VALID,0,VALID,90.7085,VALID,0,VALID,22.4331,VALID,28,VALID,1.15039,
2010-12-14, 02:36:04,VALID,999.733,VALID,0,VALID,90.5865,VALID,0,VALID,22.4136,VALID,27,VALID,1.48555,
2010-12-14, 02:37:04,VALID,999.721,VALID,0,VALID,90.5712,VALID,0,VALID,22.4136,VALID,21,VALID,1.07656,
2010-12-14, 02:38:04,VALID,999.739,VALID,0,VALID,90.4949,VALID,0,VALID,22.4136,VALID,27,VALID,1.16953,
2010-12-14, 02:39:04,VALID,999.791,VALID,0,VALID,90.3805,VALID,0,VALID,22.4331,VALID,26,VALID,1.24766,
2010-12-14, 02:40:04,VALID,999.771,VALID,0,VALID,90.5483,VALID,0,VALID,22.4738,VALID,12,VALID,1.29688,
2010-12-14, 02:41:04,VALID,999.801,VALID,0,VALID,90.7772,VALID,0,VALID,22.4738,VALID,7,VALID,1.37344,
2010-12-14, 02:42:04,VALID,999.816,VALID,0,VALID,90.9832,VALID,0,VALID,22.4526,VALID,11,VALID,1.36719,
2010-12-14, 02:43:04,VALID,999.829,VALID,0,VALID,91.0519,VALID,0,VALID,22.4331,VALID,11,VALID,2.04531,
2010-12-14, 02:44:04,VALID,999.833,VALID,0,VALID,91.1358,VALID,0,VALID,22.4136,VALID,17,VALID,2.04023,
2010-12-14, 02:45:04,VALID,999.85,VALID,0,VALID,91.2197,VALID,0,VALID,22.4136,VALID,29,VALID,2.38477,
2010-12-14, 02:46:04,VALID,999.86,VALID,0,VALID,91.3418,VALID,0,VALID,22.4136,VALID,29,VALID,2.24805,
2010-12-14, 02:47:04,VALID,999.843,VALID,0,VALID,91.3189,VALID,0,VALID,22.3746,VALID,28,VALID,2.40742,
2010-12-14, 02:48:04,VALID,999.883,VALID,0,VALID,91.2884,VALID,0,VALID,22.3551,VALID,26,VALID,2.28633,
2010-12-14, 02:49:04,VALID,999.874,VALID,0,VALID,91.2731,VALID,0,VALID,22.3356,VALID,21,VALID,1.80703,
2010-12-14, 02:50:04,VALID,999.893,VALID,0,VALID,91.3571,VALID,0,VALID,22.3568,VALID,16,VALID,1.40195,
2010-12-14, 02:51:04,VALID,999.881,VALID,0,VALID,91.4944,VALID,0,VALID,22.3161,VALID,26,VALID,1.95391,
2010-12-14, 02:52:04,VALID,999.909,VALID,0,VALID,91.5554,VALID,0,VALID,22.2771,VALID,25,VALID,1.15078,
2010-12-14, 02:53:04,VALID,999.911,VALID,0.5,VALID,91.586,VALID,0,VALID,22.2576,VALID,41,VALID,1.27695,
2010-12-14, 02:54:04,VALID,999.884,VALID,0,VALID,91.6317,VALID,0,VALID,22.2186,VALID,40,VALID,1.54688,
2010-12-14, 02:55:04,VALID,999.896,VALID,0,VALID,91.6775,VALID,0,VALID,22.2186,VALID,35,VALID,1.15195,
2010-12-14, 02:56:04,VALID,999.918,VALID,0,VALID,91.7157,VALID,0,VALID,22.1779,VALID,39,VALID,1.23633,
2010-12-14, 02:57:04,VALID,999.912,VALID,0,VALID,91.7767,VALID,0,VALID,22.199,VALID,43,VALID,1.27344,
2010-12-14, 02:58:04,VALID,999.929,VALID,0,VALID,91.8759,VALID,0,VALID,22.1779,VALID,42,VALID,0.996094,
2010-12-14, 02:59:04,VALID,999.918,VALID,0,VALID,91.9827,VALID,0,VALID,22.1584,VALID,33,VALID,1.45039,
2010-12-14, 03:00:04,VALID,999.892,VALID,0.5,VALID,92.0514,VALID,0,VALID,22.16,VALID,30,VALID,1.55703,
2010-12-14, 03:01:04,VALID,999.852,VALID,0,VALID,92.1124,VALID,0,VALID,22.16,VALID,42,VALID,1.59492,
2010-12-14, 03:02:04,VALID,999.834,VALID,0,VALID,92.1963,VALID,0,VALID,22.1389,VALID,35,VALID,1.24141,
2010-12-14, 03:03:04,VALID,999.831,VALID,0,VALID,92.2574,VALID,0,VALID,22.1405,VALID,34,VALID,1.26914,
2010-12-14, 03:04:04,VALID,999.834,VALID,0,VALID,92.3108,VALID,0,VALID,22.1405,VALID,42,VALID,1.22109,
2010-12-14, 03:05:04,VALID,999.812,VALID,0,VALID,92.3718,VALID,0,VALID,22.1194,VALID,47,VALID,0.785547,
2010-12-14, 03:06:04,VALID,999.832,VALID,0,VALID,92.4176,VALID,0,VALID,22.121,VALID,54,VALID,0.963281,
2010-12-14, 03:07:04,VALID,999.806,VALID,0,VALID,92.4786,VALID,0,VALID,22.0998,VALID,63,VALID,1.09297,
2010-12-14, 03:08:04,VALID,999.836,VALID,0,VALID,92.4939,VALID,0,VALID,22.1194,VALID,65,VALID,1.07187,
2010-12-14, 03:09:04,VALID,999.837,VALID,0,VALID,92.5473,VALID,0.112286,VALID,22.0998,VALID,65,VALID,1.11992,
2010-12-14, 03:10:04,VALID,999.827,VALID,0,VALID,92.5778,VALID,0,VALID,22.1015,VALID,80,VALID,0.805859,
2010-12-14, 03:11:04,VALID,999.828,VALID,0,VALID,92.5931,VALID,0,VALID,22.1015,VALID,80,VALID,0.890234,
2010-12-14, 03:12:04,VALID,999.84,VALID,0,VALID,92.6388,VALID,0,VALID,22.1422,VALID,97,VALID,0.797656,
2010-12-14, 03:13:04,VALID,999.827,VALID,0,VALID,92.6617,VALID,0,VALID,22.121,VALID,91,VALID,1.03984,
2010-12-14, 03:14:04,VALID,999.815,VALID,0,VALID,92.6617,VALID,0,VALID,22.1227,VALID,91,VALID,0.951953,
2010-12-14, 03:15:04,VALID,999.817,VALID,0,VALID,92.6694,VALID,0,VALID,22.1015,VALID,113,VALID,0.926953,
2010-12-14, 03:16:04,VALID,999.746,VALID,0,VALID,92.677,VALID,0,VALID,22.1032,VALID,122,VALID,1.46211,
2010-12-14, 03:17:04,VALID,999.76,VALID,0,VALID,92.677,VALID,0,VALID,22.1227,VALID,129,VALID,1.29492,
2010-12-14, 03:18:04,VALID,999.765,VALID,0,VALID,92.677,VALID,0,VALID,22.1015,VALID,122,VALID,1.04648,
2010-12-14, 03:19:04,VALID,999.793,VALID,0,VALID,92.6694,VALID,0,VALID,22.1032,VALID,122,VALID,0.903125,
2010-12-14, 03:20:04,VALID,999.813,VALID,0,VALID,92.6694,VALID,0,VALID,22.1015,VALID,122,VALID,0.470313,
2010-12-14, 03:21:04,VALID,999.831,VALID,0,VALID,92.677,VALID,0,VALID,22.121,VALID,71,VALID,0.867188,
2010-12-14, 03:22:04,VALID,999.838,VALID,0,VALID,92.677,VALID,0,VALID,22.1422,VALID,40,VALID,0.956641,
2010-12-14, 03:23:04,VALID,999.849,VALID,0,VALID,92.677,VALID,0,VALID,22.121,VALID,34,VALID,1.24805,
2010-12-14, 03:24:04,VALID,999.897,VALID,0,VALID,92.6999,VALID,0,VALID,22.1405,VALID,34,VALID,0.843359,
2010-12-14, 03:25:04,VALID,999.861,VALID,0,VALID,92.7151,VALID,0,VALID,22.1795,VALID,34,VALID,0.685938,
2010-12-14, 03:26:04,VALID,999.871,VALID,0,VALID,92.7228,VALID,0,VALID,22.1795,VALID,34,VALID,0.850781,
2010-12-14, 03:27:04,VALID,999.837,VALID,0,VALID,92.7457,VALID,0,VALID,22.16,VALID,39,VALID,1.54648,
2010-12-14, 03:28:04,VALID,999.891,VALID,0,VALID,92.7228,VALID,0,VALID,22.1812,VALID,37,VALID,1.75195,
2010-12-14, 03:29:04,VALID,999.887,VALID,0,VALID,92.7075,VALID,0,VALID,22.1812,VALID,40,VALID,1.525,
2010-12-14, 03:30:04,VALID,999.9,VALID,0,VALID,92.7228,VALID,0,VALID,22.2202,VALID,32,VALID,1.44375,
2010-12-14, 03:31:04,VALID,999.921,VALID,0.5,VALID,92.7304,VALID,0,VALID,22.2202,VALID,18,VALID,1.41094,
2010-12-14, 03:32:04,VALID,999.954,VALID,0,VALID,92.6923,VALID,0,VALID,22.2186,VALID,26,VALID,1.31797,
2010-12-14, 03:33:04,VALID,999.979,VALID,0,VALID,92.6999,VALID,0,VALID,22.2381,VALID,28,VALID,1.26992,
2010-12-14, 03:34:04,VALID,999.992,VALID,0,VALID,92.6694,VALID,0,VALID,22.2202,VALID,35,VALID,1.40859,
2010-12-14, 03:35:04,VALID,999.986,VALID,0,VALID,92.6465,VALID,0,VALID,22.2007,VALID,38,VALID,1.08203,
2010-12-14, 03:36:04,VALID,1000.03,VALID,0,VALID,92.6541,VALID,0,VALID,22.199,VALID,39,VALID,0.998438,
2010-12-14, 03:37:04,VALID,1000.02,VALID,0,VALID,92.6388,VALID,0,VALID,22.2202,VALID,44,VALID,0.833984,
2010-12-14, 03:38:04,VALID,1000.05,VALID,0,VALID,92.6236,VALID,0,VALID,22.1812,VALID,54,VALID,1.33555,
2010-12-14, 03:39:04,VALID,1000.04,VALID,0.5,VALID,92.5854,VALID,0,VALID,22.1617,VALID,53,VALID,1.15039,
2010-12-14, 03:40:04,VALID,1000.04,VALID,0,VALID,92.5549,VALID,0,VALID,22.1584,VALID,53,VALID,0.679297,
2010-12-14, 03:41:04,VALID,1000.03,VALID,0,VALID,92.5549,VALID,0,VALID,22.1584,VALID,53,VALID,0.818359,
2010-12-14, 03:42:04,VALID,1000.04,VALID,0,VALID,92.5473,VALID,0,VALID,22.1584,VALID,53,VALID,0.817187,
2010-12-14, 03:43:04,VALID,1000.02,VALID,0,VALID,92.5473,VALID,0,VALID,22.199,VALID,53,VALID,0.614453,
2010-12-14, 03:44:04,VALID,1000.05,VALID,0.5,VALID,92.5778,VALID,0,VALID,22.2186,VALID,53,VALID,0.751953,